Stations météo

Publicité
Logan Botanic Garden, Grande-Bretagne (99193): Température de l'air & dewpoint: 21.04.2018 01:00:00 - 27.04.2018 01:00:00 (BST)Logan Botanic Garden, Grande-Bretagne (99193): Température de l'air -20cm: 21.04.2018 01:00:00 - 27.04.2018 01:00:00 (BST)Logan Botanic Garden, Grande-Bretagne (99193): Quantités de précipitations: 21.04.2018 01:00:00 - 27.04.2018 01:00:00 (BST)
Date & Time tt [°C] td [°C] tt -20cm [°C] rr [mm]
27.04.2018 01:00:00 4,7 3,5 - 0,0
27.04.2018 00:00:00 5,1 4,3 - 0,0
26.04.2018 23:00:00 4,9 3,5 - 0,0
26.04.2018 22:00:00 6,6 5,0 - 0,0
26.04.2018 21:00:00 7,0 5,4 - 0,0
26.04.2018 20:00:00 7,7 5,3 - 0,0
26.04.2018 19:00:00 9,3 5,9 - 0,0
26.04.2018 18:00:00 8,8 5,0 - 1,0
26.04.2018 17:00:00 8,6 5,5 - 0,2
26.04.2018 16:00:00 9,2 6,5 - 0,4
26.04.2018 15:00:00 8,7 6,2 - 0,0
26.04.2018 14:00:00 9,1 6,7 - 0,0
26.04.2018 13:00:00 7,6 6,1 - 1,4
26.04.2018 12:00:00 9,8 6,2 - 0,0
26.04.2018 11:00:00 10,1 6,4 - 0,0
26.04.2018 10:00:00 8,3 5,3 9,7 0,0
26.04.2018 09:00:00 - - - 0,0
26.04.2018 08:00:00 - - - 0,0
26.04.2018 07:00:00 - - - 0,0
26.04.2018 06:00:00 - - - 0,0
26.04.2018 05:00:00 - - - 0,0
26.04.2018 04:00:00 - - - 0,0
26.04.2018 03:00:00 - - - 0,0
26.04.2018 02:00:00 - - - 0,0
26.04.2018 01:00:00 - - - 0,0
26.04.2018 00:00:00 - - - 0,0
25.04.2018 23:00:00 - - - 0,0
25.04.2018 22:00:00 - - - 0,0
25.04.2018 21:00:00 - - - 0,0
25.04.2018 20:00:00 - - - 0,0
25.04.2018 19:00:00 - - - 0,0
25.04.2018 18:00:00 8,8 6,5 - 0,0
25.04.2018 17:00:00 - - - 0,6
25.04.2018 16:00:00 - - - 0,0
25.04.2018 15:00:00 - - - 0,0
25.04.2018 14:00:00 - - - 0,0
25.04.2018 13:00:00 - - - 0,0
25.04.2018 12:00:00 8,7 6,7 - 3,0
25.04.2018 11:00:00 8,9 6,9 - 0,0
25.04.2018 10:00:00 8,2 6,5 9,7 0,0
25.04.2018 09:00:00 8,2 6,3 - 0,0
25.04.2018 08:00:00 7,5 5,9 - 0,0
25.04.2018 07:00:00 6,3 5,3 - 0,0
25.04.2018 06:00:00 6,1 5,2 - 0,0
25.04.2018 05:00:00 6,0 5,0 - 0,2
25.04.2018 04:00:00 6,4 5,5 - 0,0
25.04.2018 03:00:00 6,8 6,0 - 0,0
25.04.2018 02:00:00 7,0 6,2 - 0,0
25.04.2018 01:00:00 7,1 6,5 - 0,2
25.04.2018 00:00:00 7,2 6,7 - 0,8
24.04.2018 23:00:00 7,4 6,8 - 0,8
24.04.2018 22:00:00 7,5 6,8 - 2,0
24.04.2018 21:00:00 7,7 6,9 - 0,8
24.04.2018 20:00:00 7,8 6,5 - 0,0
24.04.2018 19:00:00 7,9 6,3 - 0,0
24.04.2018 18:00:00 8,0 6,5 - 0,0
24.04.2018 17:00:00 7,9 6,3 - 0,0
24.04.2018 16:00:00 8,2 6,4 - 0,0
24.04.2018 15:00:00 8,5 6,7 - 0,0
24.04.2018 14:00:00 8,5 7,3 - 0,0
24.04.2018 13:00:00 8,9 7,6 - 0,0
24.04.2018 12:00:00 8,7 7,4 - 0,0
24.04.2018 11:00:00 8,7 7,4 - 0,0
24.04.2018 10:00:00 8,8 7,5 10,0 0,0
24.04.2018 09:00:00 9,2 7,0 - 0,0
24.04.2018 08:00:00 8,0 6,5 - 0,0
24.04.2018 07:00:00 8,0 6,3 - 0,0
24.04.2018 06:00:00 7,6 6,5 - 0,0
24.04.2018 05:00:00 7,8 6,8 - 0,0
24.04.2018 04:00:00 8,0 6,3 - 0,2
24.04.2018 03:00:00 7,9 6,5 - 0,0
24.04.2018 02:00:00 8,4 6,7 - 0,2
24.04.2018 01:00:00 8,8 6,3 - 0,0
24.04.2018 00:00:00 8,7 6,1 - 0,0
23.04.2018 23:00:00 8,6 6,4 - 0,0
23.04.2018 22:00:00 8,9 5,7 - 0,0
23.04.2018 21:00:00 8,9 6,3 - 0,0
23.04.2018 20:00:00 9,9 6,9 - 0,0
23.04.2018 19:00:00 9,5 8,8 - 0,0
23.04.2018 18:00:00 9,1 8,5 - 0,2
23.04.2018 17:00:00 8,7 8,1 - 0,0
23.04.2018 16:00:00 8,5 7,8 - 1,2
23.04.2018 15:00:00 9,1 6,9 - 0,0
23.04.2018 14:00:00 8,9 7,1 - 0,0
23.04.2018 13:00:00 9,1 7,3 - 0,0
23.04.2018 12:00:00 8,9 6,8 - 0,0
23.04.2018 11:00:00 9,8 6,9 - 0,0
23.04.2018 10:00:00 9,1 7,1 10,0 0,0
23.04.2018 09:00:00 8,8 7,2 - 0,0
23.04.2018 08:00:00 8,3 6,8 - 0,0
23.04.2018 07:00:00 7,9 6,8 - 0,0
23.04.2018 06:00:00 7,8 6,8 - 0,0
23.04.2018 05:00:00 7,9 6,7 - 0,0
23.04.2018 04:00:00 7,9 6,7 - 0,0
23.04.2018 03:00:00 8,2 7,0 - 0,0
23.04.2018 02:00:00 8,3 6,8 - 0,0
23.04.2018 01:00:00 8,3 6,4 - 0,0
23.04.2018 00:00:00 8,2 6,8 - 0,0
22.04.2018 23:00:00 8,2 6,8 - 0,0
22.04.2018 22:00:00 8,6 7,5 - 0,2
22.04.2018 21:00:00 8,7 7,4 - 0,8
22.04.2018 20:00:00 9,0 7,3 - 0,0
22.04.2018 19:00:00 9,0 7,5 - 1,2
22.04.2018 18:00:00 8,7 7,5 - 0,2
22.04.2018 17:00:00 9,4 8,2 - 1,0
22.04.2018 16:00:00 10,4 8,0 - 0,0
22.04.2018 15:00:00 11,1 8,4 - 0,0
22.04.2018 14:00:00 10,4 7,6 - 0,0
22.04.2018 13:00:00 8,7 8,0 - 0,0
22.04.2018 12:00:00 9,1 8,6 - 0,0
22.04.2018 11:00:00 8,2 7,8 - 0,0
22.04.2018 10:00:00 7,9 7,5 10,2 0,4
22.04.2018 09:00:00 7,7 7,0 - 1,6
22.04.2018 08:00:00 8,0 6,6 - 0,4
22.04.2018 07:00:00 8,3 6,3 - 0,0
22.04.2018 06:00:00 8,5 6,5 - 0,0
22.04.2018 05:00:00 9,0 6,9 - 0,0
22.04.2018 04:00:00 8,8 7,1 - 0,0
22.04.2018 03:00:00 8,8 7,2 - 0,0
22.04.2018 02:00:00 9,6 7,2 - 0,0
22.04.2018 01:00:00 8,0 6,4 - 0,0
22.04.2018 00:00:00 8,5 5,9 - 0,0
21.04.2018 23:00:00 9,2 6,6 - 0,0
21.04.2018 22:00:00 9,4 6,6 - 0,0
21.04.2018 21:00:00 9,2 6,6 - 0,0
21.04.2018 20:00:00 10,3 7,2 - 0,0
21.04.2018 19:00:00 11,6 7,6 - 0,0
21.04.2018 18:00:00 12,2 7,3 - 0,0
21.04.2018 17:00:00 13,1 8,1 - 0,0
21.04.2018 16:00:00 12,2 7,6 - 0,0
21.04.2018 15:00:00 11,6 8,0 - 0,0
21.04.2018 14:00:00 12,5 7,8 - 0,0
21.04.2018 13:00:00 12,7 8,5 - 0,0
21.04.2018 12:00:00 12,0 9,0 - 0,0
21.04.2018 11:00:00 11,6 8,3 - 0,0
21.04.2018 10:00:00 11,3 8,4 9,9 0,0
21.04.2018 09:00:00 9,4 7,6 - 0,0
21.04.2018 08:00:00 8,0 7,6 - 0,0
21.04.2018 07:00:00 6,5 6,2 - 0,0
21.04.2018 06:00:00 5,9 5,5 - 0,0
21.04.2018 05:00:00 7,1 6,7 - 0,0
21.04.2018 04:00:00 6,0 5,6 - 0,0
21.04.2018 03:00:00 6,8 6,3 - 0,0
21.04.2018 02:00:00 6,4 5,8 - 0,0
21.04.2018 01:00:00 7,2 6,6 - 0,0

tt = Température de l'air
td = dewpoint
tt -20cm = Température de l'air -20cm
rr = Quantités de précipitations

stations d'obs. à proximité